Вернуться в каталог

FENGYUN 1C DEB

АктивенSSO
NORAD 31627·DEBRIS·🇨🇳 China

Запущен May 10, 1999 с Taiyuan Satellite Launch Center

Loading…

Ближайшие Пролёты (ближайшие 24 часа)

TLE

УстаревшееSource: Space-Track

Эпоха: Aug 21, 2026, 09:01 UTC

1 31627U 99025CAH 26233.37584130  .00002156  00000-0  73060-3 0  9994
2 31627  98.5091 283.4403 0051904 125.3278 235.2777 14.36980042683797

Отслеживайте FENGYUN 1C DEB в реальном времени с AllMySat

Download on the App Store